TimeEST,TemperatureF,Dew PointF,Humidity,Sea Level PressureIn,VisibilityMPH,Wind Direction,Wind SpeedMPH,Gust SpeedMPH,PrecipitationIn,Events,Conditions,WindDirDegrees,DateUTC
12:15 AM,45.5,41.0,84,30.19,10.0,South,4.6,-,N/A,,Clear,180,2013-01-20 05:15:00
12:35 AM,45.5,41.2,85,30.18,10.0,South,4.6,-,N/A,,Clear,180,2013-01-20 05:35:00
12:55 AM,45.9,41.5,85,30.17,10.0,South,5.8,-,N/A,,Clear,180,2013-01-20 05:55:00
1:15 AM,46.0,41.9,85,30.17,10.0,SSW,5.8,-,N/A,,Clear,200,2013-01-20 06:15:00
1:35 AM,45.7,41.9,87,30.17,10.0,SSW,4.6,-,N/A,,Clear,200,2013-01-20 06:35:00
1:55 AM,46.0,41.9,85,30.16,10.0,SSW,4.6,-,N/A,,Clear,200,2013-01-20 06:55:00
2:15 AM,46.0,42.3,87,30.16,10.0,SSW,3.5,-,N/A,,Clear,210,2013-01-20 07:15:00
2:35 AM,45.5,42.3,88,30.15,10.0,SSW,3.5,-,N/A,,Clear,210,2013-01-20 07:35:00
2:55 AM,44.6,41.9,90,30.16,10.0,Calm,Calm,-,N/A,,Clear,0,2013-01-20 07:55:00
3:15 AM,45.1,42.4,90,30.16,10.0,Calm,Calm,-,N/A,,Clear,0,2013-01-20 08:15:00
3:35 AM,43.9,41.9,93,30.16,10.0,SW,3.5,-,N/A,,Clear,230,2013-01-20 08:35:00
3:55 AM,44.4,42.6,93,30.16,10.0,Calm,Calm,-,N/A,,Clear,0,2013-01-20 08:55:00
4:15 AM,43.2,41.2,93,30.14,10.0,Calm,Calm,-,N/A,,Clear,0,2013-01-20 09:15:00
4:35 AM,42.1,40.6,95,30.14,10.0,Calm,Calm,-,N/A,,Clear,0,2013-01-20 09:35:00
4:55 AM,42.3,41.2,96,30.14,10.0,South,3.5,-,N/A,,Clear,190,2013-01-20 09:55:00
5:15 AM,42.1,41.2,97,30.14,10.0,Calm,Calm,-,N/A,,Clear,0,2013-01-20 10:15:00
5:35 AM,42.4,41.2,95,30.14,10.0,SW,3.5,-,N/A,,Clear,220,2013-01-20 10:35:00
5:55 AM,42.3,41.0,95,30.14,10.0,SW,3.5,-,N/A,,Clear,220,2013-01-20 10:55:00
6:15 AM,42.1,40.6,95,30.14,10.0,Calm,Calm,-,N/A,,Clear,0,2013-01-20 11:15:00
6:35 AM,42.1,40.6,95,30.14,10.0,Calm,Calm,-,N/A,,Clear,0,2013-01-20 11:35:00
6:55 AM,41.9,40.3,94,30.14,10.0,SW,3.5,-,N/A,,Clear,220,2013-01-20 11:55:00
7:15 AM,42.1,40.5,94,30.14,10.0,SW,3.5,-,N/A,,Clear,220,2013-01-20 12:15:00
7:35 AM,41.5,40.1,95,30.14,10.0,SSW,3.5,-,N/A,,Clear,210,2013-01-20 12:35:00
7:55 AM,42.1,40.8,95,30.14,10.0,SSW,3.5,-,N/A,,Clear,210,2013-01-20 12:55:00
8:15 AM,44.1,41.9,92,30.14,10.0,SW,5.8,-,N/A,,Clear,230,2013-01-20 13:15:00
8:35 AM,46.0,42.1,86,30.14,10.0,WSW,4.6,-,N/A,,Clear,240,2013-01-20 13:35:00
8:55 AM,48.0,42.3,80,30.14,10.0,WSW,5.8,-,N/A,,Clear,240,2013-01-20 13:55:00
9:15 AM,49.8,42.1,75,30.14,10.0,WSW,4.6,-,N/A,,Clear,240,2013-01-20 14:15:00
9:35 AM,51.6,41.7,69,30.14,10.0,WSW,9.2,-,N/A,,Clear,250,2013-01-20 14:35:00
9:55 AM,53.1,40.6,63,30.15,10.0,West,9.2,-,N/A,,Clear,260,2013-01-20 14:55:00
10:15 AM,54.1,39.0,57,30.15,10.0,West,10.4,-,N/A,,Clear,260,2013-01-20 15:15:00
10:35 AM,55.8,36.9,49,30.14,10.0,WSW,10.4,-,N/A,,Clear,250,2013-01-20 15:35:00
10:55 AM,57.4,34.0,41,30.12,10.0,WSW,11.5,-,N/A,,Clear,250,2013-01-20 15:55:00
11:15 AM,57.9,32.7,39,30.11,10.0,West,9.2,-,N/A,,Clear,260,2013-01-20 16:15:00
11:35 AM,59.2,33.3,38,30.10,10.0,WSW,9.2,-,N/A,,Clear,250,2013-01-20 16:35:00
11:55 AM,59.9,31.6,34,30.09,10.0,West,11.5,-,N/A,,Clear,260,2013-01-20 16:55:00
12:15 PM,61.0,32.5,34,30.07,10.0,West,8.1,-,N/A,,Clear,270,2013-01-20 17:15:00
12:35 PM,60.6,31.6,34,30.06,10.0,West,8.1,-,N/A,,Clear,270,2013-01-20 17:35:00
12:55 PM,61.5,32.2,33,30.05,10.0,WSW,5.8,-,N/A,,Clear,250,2013-01-20 17:55:00
1:15 PM,62.1,32.0,32,30.04,10.0,WSW,8.1,-,N/A,,Clear,250,2013-01-20 18:15:00
1:35 PM,63.1,31.1,30,30.04,10.0,WSW,8.1,-,N/A,,Clear,250,2013-01-20 18:35:00
1:55 PM,63.0,30.2,29,30.03,10.0,West,8.1,-,N/A,,Clear,280,2013-01-20 18:55:00
2:15 PM,63.5,31.6,30,30.03,10.0,West,8.1,-,N/A,,Clear,260,2013-01-20 19:15:00
2:35 PM,63.7,32.2,31,30.02,10.0,West,11.5,-,N/A,,Clear,260,2013-01-20 19:35:00
2:55 PM,63.9,31.1,29,30.02,10.0,WSW,5.8,-,N/A,,Clear,240,2013-01-20 19:55:00
3:15 PM,64.4,32.2,30,30.01,10.0,WSW,5.8,-,N/A,,Clear,250,2013-01-20 20:15:00
3:35 PM,63.9,32.2,31,30.01,10.0,WSW,6.9,-,N/A,,Clear,240,2013-01-20 20:35:00
3:55 PM,64.2,33.1,31,30.01,10.0,SW,6.9,-,N/A,,Clear,230,2013-01-20 20:55:00
4:15 PM,63.7,33.8,33,30.02,10.0,WSW,6.9,-,N/A,,Clear,240,2013-01-20 21:15:00
4:35 PM,63.1,34.5,34,30.02,10.0,WSW,4.6,-,N/A,,Clear,250,2013-01-20 21:35:00
4:55 PM,62.8,35.8,37,30.02,10.0,WSW,4.6,-,N/A,,Clear,240,2013-01-20 21:55:00
5:15 PM,61.0,36.7,40,30.03,10.0,WSW,3.5,-,N/A,,Clear,240,2013-01-20 22:15:00
5:35 PM,58.6,36.1,43,30.04,10.0,SW,3.5,-,N/A,,Clear,230,2013-01-20 22:35:00
5:55 PM,55.9,37.9,51,30.04,10.0,Calm,Calm,-,N/A,,Clear,0,2013-01-20 22:55:00
6:15 PM,52.9,39.7,61,30.04,10.0,Calm,Calm,-,N/A,,Clear,0,2013-01-20 23:15:00
6:35 PM,50.4,38.7,64,30.05,10.0,Calm,Calm,-,N/A,,Clear,0,2013-01-20 23:35:00
6:55 PM,49.3,38.3,66,30.05,10.0,SW,3.5,-,N/A,,Clear,220,2013-01-20 23:55:00
7:15 PM,47.3,38.7,72,30.06,10.0,SW,3.5,-,N/A,,Clear,220,2013-01-21 00:15:00
7:35 PM,48.4,38.5,69,30.06,10.0,Calm,Calm,-,N/A,,Clear,0,2013-01-21 00:35:00
7:55 PM,46.2,38.7,75,30.06,10.0,Calm,Calm,-,N/A,,Clear,0,2013-01-21 00:55:00
8:15 PM,46.0,38.1,74,30.06,10.0,Calm,Calm,-,N/A,,Clear,0,2013-01-21 01:15:00
8:35 PM,45.3,37.8,75,30.06,10.0,Calm,Calm,-,N/A,,Clear,0,2013-01-21 01:35:00
8:55 PM,44.4,37.4,76,30.07,10.0,Calm,Calm,-,N/A,,Clear,0,2013-01-21 01:55:00
9:15 PM,43.3,37.4,80,30.07,10.0,Calm,Calm,-,N/A,,Clear,0,2013-01-21 02:15:00
9:35 PM,43.7,37.6,79,30.08,10.0,Calm,Calm,-,N/A,,Clear,0,2013-01-21 02:35:00
9:55 PM,43.3,37.4,80,30.08,10.0,Calm,Calm,-,N/A,,Clear,0,2013-01-21 02:55:00
10:15 PM,42.8,36.9,80,30.09,10.0,Calm,Calm,-,N/A,,Clear,0,2013-01-21 03:15:00
10:35 PM,42.4,36.5,79,30.09,10.0,Calm,Calm,-,N/A,,Clear,0,2013-01-21 03:35:00
10:55 PM,40.5,36.3,85,30.09,10.0,Calm,Calm,-,N/A,,Clear,0,2013-01-21 03:55:00
11:15 PM,40.3,35.8,84,30.09,10.0,Calm,Calm,-,N/A,,Clear,0,2013-01-21 04:15:00
11:35 PM,41.0,36.0,82,30.09,10.0,NNW,3.5,-,N/A,,Clear,330,2013-01-21 04:35:00
11:55 PM,43.0,36.3,77,30.09,10.0,Calm,Calm,-,N/A,,Clear,0,2013-01-21 04:55:00